Location: Newark
(49.4900°N, 20.6656°E)
Time: 07:36:46
(UTC+00:00)

Envisat - Visible Passes

Search period start: 23 September 2020 00:00
Search period end: 03 October 2020 00:00
Orbit: 764 x 766 km, 98.1° (Epoch: 23 September)

Date Brightness Start Highest point End Pass type
(mag) Time Alt. Az. Time Alt. Az. Time Alt. Az.
23 Sep 6.7 03:07:32 10° ENE 03:08:05 10° E 03:08:37 10° E visible
24 Sep 6.1 17:06:03 10° SW 17:09:34 19° W 17:13:07 10° NW visible
25 Sep 6.1 03:30:33 10° NE 03:33:54 17° E 03:37:15 10° SE visible
26 Sep 6.7 17:33:59 10° W 17:35:23 11° W 17:36:47 10° WNW visible
27 Sep 5.5 03:55:15 10° NE 03:59:38 28° E 04:03:59 10° SSE visible
27 Sep 5.9 16:54:06 10° SW 16:58:05 23° W 17:02:05 10° NW visible
28 Sep 6.3 03:19:44 10° NE 03:22:24 14° E 03:25:02 10° ESE visible
29 Sep 6.4 17:21:15 10° WSW 17:23:51 14° W 17:26:28 10° NW visible
30 Sep 5.8 03:44:08 10° NE 03:48:10 23° E 03:52:10 10° SE visible
30 Sep 5.5 16:42:16 10° SSW 16:46:37 28° W 16:50:59 10° NW visible
01 Oct 6.6 03:09:23 10° ENE 03:10:51 11° E 03:12:20 10° E visible
02 Oct 6.2 17:09:01 10° SW 17:12:20 17° W 17:15:40 10° NW visible
